Location: Salamanca
(40.9670°N, 5.6500°W)
Time: 06:48:38
(UTC+01:00)

ISS - Visible Passes

Search period start: 11 December 2017 00:00
Search period end: 21 December 2017 00:00
Orbit: 402 x 407 km, 51.6° (Epoch: 11 December)

Date Brightness Start Highest point End Pass type
(mag) Time Alt. Az. Time Alt. Az. Time Alt. Az.
11 Dec -2.1 19:46:48 10° NW 19:48:28 23° NNW 19:48:28 23° NNW visible
12 Dec -2.4 18:54:43 10° NW 18:57:27 23° NNE 18:58:40 19° NE visible
12 Dec -0.7 20:30:54 10° WNW 20:31:22 13° WNW 20:31:22 13° WNW visible
13 Dec -3.9 19:38:37 10° NW 19:41:44 70° N 19:41:44 70° N visible
14 Dec -3.3 18:46:26 10° NW 18:49:35 41° NNE 18:52:21 12° E visible
14 Dec -1.2 20:23:14 10° W 20:25:04 21° WSW 20:25:04 21° WSW visible
15 Dec -2.8 19:30:35 10° WNW 19:33:44 45° SW 19:36:02 16° SSE visible
16 Dec -3.8 18:38:12 10° NW 18:41:30 89° SW 18:44:47 10° SE visible
17 Dec -0.9 19:23:02 10° W 19:25:24 19° SW 19:27:45 10° S visible
18 Dec -2.0 18:30:12 10° WNW 18:33:14 35° SW 18:36:15 10° SSE visible
